ARG1824 SABE-SAVC

Flight info

Callsign ARG1824
Flight time 1h 59m
Altitude 38000
Route PTA8 GBE UT694 IREMO UP664 GATUD GATUD2U
Aircraft E190/M-SDE3GILORVW/S

Departure

Time 2026-04-14 15:39
Airport Aeroparque Jorge Newbery (SABE)

Arrival

Time 2026-04-14 17:38
Airport General Enrique Mosconi International Airport (SAVC)
Time Latitude Longitude Altitude Speed Heading
2026-04-14 15:14 -34.55783 -58.41286 27 ft 0 kts 34°
2026-04-14 15:28 -34.55795 -58.41293 27 ft 2 kts 11°
2026-04-14 15:28 -34.55810 -58.41295 27 ft 2 kts 351°
2026-04-14 15:28 -34.55825 -58.41289 28 ft 2 kts 330°
2026-04-14 15:29 -34.55837 -58.41278 28 ft 2 kts 308°
2026-04-14 15:29 -34.55844 -58.41262 28 ft 2 kts 298°
2026-04-14 15:29 -34.55848 -58.41254 28 ft 0 kts 302°
2026-04-14 15:32 -34.55838 -58.41274 28 ft 6 kts 302°
2026-04-14 15:32 -34.55806 -58.41333 27 ft 9 kts 303°
2026-04-14 15:33 -34.55774 -58.41394 28 ft 8 kts 301°
2026-04-14 15:33 -34.55745 -58.41454 28 ft 8 kts 298°
2026-04-14 15:33 -34.55719 -58.41516 27 ft 8 kts 279°
2026-04-14 15:33 -34.55754 -58.41572 26 ft 9 kts 212°
2026-04-14 15:34 -34.55780 -58.41634 27 ft 8 kts 286°
2026-04-14 15:34 -34.55753 -58.41705 26 ft 9 kts 296°
2026-04-14 15:34 -34.55718 -58.41781 25 ft 10 kts 301°
2026-04-14 15:34 -34.55673 -58.41860 24 ft 10 kts 303°
2026-04-14 15:35 -34.55631 -58.41937 24 ft 11 kts 304°
2026-04-14 15:35 -34.55589 -58.42015 24 ft 11 kts 303°
2026-04-14 15:35 -34.55542 -58.42090 24 ft 11 kts 307°
2026-04-14 15:35 -34.55494 -58.42166 24 ft 11 kts 308°
2026-04-14 15:36 -34.55451 -58.42234 26 ft 9 kts 305°
2026-04-14 15:36 -34.55422 -58.42283 26 ft 2 kts 306°
2026-04-14 15:36 -34.55419 -58.42288 26 ft 2 kts 306°
2026-04-14 15:36 -34.55403 -58.42314 26 ft 4 kts 306°
2026-04-14 15:37 -34.55383 -58.42346 26 ft 5 kts 306°
2026-04-14 15:37 -34.55366 -58.42389 26 ft 5 kts 287°
2026-04-14 15:37 -34.55358 -58.42429 27 ft 4 kts 281°
2026-04-14 15:37 -34.55356 -58.42462 27 ft 3 kts 266°
2026-04-14 15:38 -34.55367 -58.42493 28 ft 5 kts 225°
2026-04-14 15:38 -34.55405 -58.42503 28 ft 5 kts 162°
2026-04-14 15:38 -34.55430 -58.42464 28 ft 7 kts 118°
2026-04-14 15:38 -34.55586 -58.42176 26 ft 82 kts 126°
2026-04-14 15:39 -34.56056 -58.41334 32 ft 153 kts 122°
2026-04-14 15:39 -34.56726 -58.40132 386 ft 183 kts 122°
2026-04-14 15:39 -34.57475 -58.38889 1188 ft 187 kts 122°
2026-04-14 15:39 -34.58287 -58.37663 1943 ft 193 kts 126°
2026-04-14 15:40 -34.59396 -58.36552 2399 ft 221 kts 148°
2026-04-14 15:40 -34.61002 -58.36292 2856 ft 251 kts 193°
2026-04-14 15:40 -34.62590 -58.37235 3505 ft 266 kts 212°
2026-04-14 15:40 -34.64222 -58.38467 4159 ft 283 kts 212°
2026-04-14 15:41 -34.65912 -58.39744 5017 ft 289 kts 213°
2026-04-14 15:41 -34.67687 -58.40884 5931 ft 293 kts 201°
2026-04-14 15:41 -34.69639 -58.41513 6897 ft 293 kts 191°
2026-04-14 15:41 -34.71677 -58.41857 7767 ft 296 kts 186°
2026-04-14 15:42 -34.73722 -58.42059 8592 ft 299 kts 185°
2026-04-14 15:42 -34.75819 -58.42200 9349 ft 303 kts 184°
2026-04-14 15:42 -34.77937 -58.42313 10067 ft 308 kts 184°
2026-04-14 15:42 -34.80091 -58.42414 10756 ft 313 kts 183°
2026-04-14 15:43 -34.82296 -58.42511 11313 ft 323 kts 183°
2026-04-14 15:43 -34.84579 -58.42609 11838 ft 333 kts 183°
2026-04-14 15:43 -34.86940 -58.42710 12379 ft 343 kts 183°
2026-04-14 15:43 -34.89335 -58.42811 12984 ft 349 kts 183°
2026-04-14 15:44 -34.91785 -58.42915 13654 ft 353 kts 183°
2026-04-14 15:44 -34.94255 -58.43019 14355 ft 356 kts 183°
2026-04-14 15:44 -34.96747 -58.43124 15038 ft 358 kts 184°
2026-04-14 15:44 -34.99231 -58.43230 15693 ft 361 kts 184°
2026-04-14 15:45 -35.01773 -58.43337 16382 ft 363 kts 184°
2026-04-14 15:45 -35.04295 -58.43444 17020 ft 365 kts 184°
2026-04-14 15:45 -35.06840 -58.43552 17625 ft 369 kts 184°
2026-04-14 15:45 -35.09404 -58.43661 18210 ft 373 kts 184°
2026-04-14 15:46 -35.12012 -58.43772 18824 ft 375 kts 184°
2026-04-14 15:46 -35.14645 -58.43883 19388 ft 379 kts 184°
2026-04-14 15:46 -35.17273 -58.43995 19959 ft 382 kts 184°
2026-04-14 15:46 -35.19964 -58.44110 20541 ft 385 kts 184°
2026-04-14 15:47 -35.22657 -58.44224 21133 ft 387 kts 184°
2026-04-14 15:47 -35.25337 -58.44339 21688 ft 390 kts 184°
2026-04-14 15:47 -35.28048 -58.44454 22223 ft 393 kts 184°
2026-04-14 15:47 -35.30792 -58.44571 22739 ft 396 kts 184°
2026-04-14 15:48 -35.33590 -58.44691 23239 ft 400 kts 185°
2026-04-14 15:48 -35.36386 -58.44810 23753 ft 403 kts 185°
2026-04-14 15:48 -35.39198 -58.44931 24258 ft 406 kts 185°
2026-04-14 15:48 -35.42026 -58.45052 24737 ft 409 kts 185°
2026-04-14 15:49 -35.44901 -58.45174 25210 ft 412 kts 185°
2026-04-14 15:49 -35.47748 -58.45296 25650 ft 416 kts 185°
2026-04-14 15:49 -35.50679 -58.45422 26089 ft 420 kts 185°
2026-04-14 15:49 -35.53601 -58.45548 26548 ft 422 kts 185°
2026-04-14 15:50 -35.56549 -58.45674 26984 ft 425 kts 185°
2026-04-14 15:50 -35.59517 -58.45802 27395 ft 429 kts 185°
2026-04-14 15:50 -35.62519 -58.45931 27787 ft 432 kts 185°
2026-04-14 15:50 -35.65527 -58.46060 28206 ft 435 kts 186°
2026-04-14 15:51 -35.68562 -58.46191 28637 ft 437 kts 186°
2026-04-14 15:51 -35.71619 -58.46401 29046 ft 437 kts 191°
2026-04-14 15:51 -35.74586 -58.47164 29406 ft 434 kts 202°
2026-04-14 15:51 -35.77411 -58.48500 29749 ft 432 kts 211°
2026-04-14 15:52 -35.79991 -58.50382 30129 ft 428 kts 220°
2026-04-14 15:52 -35.82439 -58.52433 30550 ft 430 kts 219°
2026-04-14 15:52 -35.84931 -58.54483 30920 ft 432 kts 219°
2026-04-14 15:52 -35.87426 -58.56525 31269 ft 434 kts 219°
2026-04-14 15:53 -35.89962 -58.58599 31651 ft 436 kts 220°
2026-04-14 15:53 -35.92498 -58.60673 32077 ft 436 kts 220°
2026-04-14 15:53 -35.95006 -58.62725 32562 ft 434 kts 220°
2026-04-14 15:53 -35.97502 -58.64769 33060 ft 432 kts 220°
2026-04-14 15:54 -36.02479 -58.68850 34089 ft 427 kts 221°
2026-04-14 15:54 -36.04937 -58.70869 34549 ft 426 kts 221°
2026-04-14 15:54 -36.07404 -58.72896 34962 ft 425 kts 221°
2026-04-14 15:55 -36.09879 -58.74931 35299 ft 427 kts 222°
2026-04-14 15:55 -36.12334 -58.76952 35677 ft 427 kts 222°
2026-04-14 15:55 -36.14812 -58.78991 36070 ft 426 kts 222°
2026-04-14 15:55 -36.17244 -58.80996 36435 ft 426 kts 222°
2026-04-14 15:56 -36.19728 -58.83044 36771 ft 426 kts 222°
2026-04-14 15:56 -36.22192 -58.85078 37050 ft 427 kts 222°
2026-04-14 15:56 -36.24648 -58.87107 37365 ft 427 kts 222°
2026-04-14 15:56 -36.27115 -58.89147 37617 ft 428 kts 222°
2026-04-14 15:57 -36.29579 -58.91184 37924 ft 424 kts 223°
2026-04-14 15:57 -36.34508 -58.95269 37961 ft 430 kts 222°
2026-04-14 15:58 -36.39560 -58.99460 37962 ft 444 kts 222°
2026-04-14 15:58 -36.44726 -59.03753 37965 ft 454 kts 222°
2026-04-14 15:59 -36.49994 -59.08135 37962 ft 457 kts 222°
2026-04-14 15:59 -36.55246 -59.12513 37961 ft 456 kts 221°
2026-04-14 16:00 -36.60523 -59.16919 37964 ft 456 kts 221°
2026-04-14 16:00 -36.65763 -59.21307 37960 ft 457 kts 221°
2026-04-14 16:01 -36.71011 -59.25706 37968 ft 456 kts 221°
2026-04-14 16:01 -36.76269 -59.30113 37972 ft 456 kts 221°
2026-04-14 16:02 -36.81530 -59.34534 37972 ft 456 kts 221°
2026-04-14 16:02 -36.86748 -59.38928 37973 ft 455 kts 221°
2026-04-14 16:03 -36.91983 -59.43344 37976 ft 454 kts 220°
2026-04-14 16:03 -36.97220 -59.47767 37973 ft 454 kts 221°
2026-04-14 16:04 -37.02449 -59.52193 37975 ft 454 kts 220°
2026-04-14 16:04 -37.07687 -59.56634 37984 ft 456 kts 220°
2026-04-14 16:05 -37.12930 -59.61086 37974 ft 455 kts 220°
2026-04-14 16:05 -37.18181 -59.65553 37980 ft 457 kts 220°
2026-04-14 16:06 -37.23438 -59.70032 37976 ft 456 kts 220°
2026-04-14 16:06 -37.28695 -59.74519 37980 ft 455 kts 220°
2026-04-14 16:07 -37.33918 -59.78986 37987 ft 457 kts 220°
2026-04-14 16:07 -37.39171 -59.83485 37974 ft 457 kts 220°
2026-04-14 16:08 -37.44405 -59.87975 37973 ft 456 kts 219°
2026-04-14 16:08 -37.49670 -59.92500 37963 ft 458 kts 219°
2026-04-14 16:09 -37.54898 -59.97001 37971 ft 456 kts 219°
2026-04-14 16:09 -37.60140 -60.01521 37966 ft 457 kts 219°
2026-04-14 16:10 -37.65380 -60.06049 37951 ft 458 kts 219°
2026-04-14 16:10 -37.70626 -60.10589 37959 ft 457 kts 218°
2026-04-14 16:11 -37.75849 -60.15117 37948 ft 457 kts 218°
2026-04-14 16:11 -37.81080 -60.19659 37956 ft 457 kts 218°
2026-04-14 16:12 -37.86306 -60.24207 37955 ft 455 kts 218°
2026-04-14 16:12 -37.91526 -60.28756 37960 ft 454 kts 218°
2026-04-14 16:13 -37.96708 -60.33279 37941 ft 453 kts 218°
2026-04-14 16:13 -38.01899 -60.37815 37949 ft 455 kts 216°
2026-04-14 16:14 -38.07752 -60.41065 37948 ft 464 kts 196°
2026-04-14 16:14 -38.14159 -60.42002 37935 ft 468 kts 189°
2026-04-14 16:15 -38.20365 -60.44230 37946 ft 459 kts 209°
2026-04-14 16:15 -38.25511 -60.48772 37938 ft 450 kts 228°
2026-04-14 16:16 -38.29981 -60.54282 37935 ft 453 kts 218°
2026-04-14 16:16 -38.35198 -60.58769 37920 ft 453 kts 217°
2026-04-14 16:17 -38.40463 -60.63258 37922 ft 453 kts 217°
2026-04-14 16:17 -38.45674 -60.67708 37920 ft 453 kts 217°
2026-04-14 16:18 -38.50911 -60.72188 37918 ft 452 kts 217°
2026-04-14 16:18 -38.56155 -60.76682 37914 ft 452 kts 217°
2026-04-14 16:19 -38.61356 -60.81146 37906 ft 453 kts 217°
2026-04-14 16:19 -38.66600 -60.85655 37905 ft 451 kts 217°
2026-04-14 16:20 -38.71770 -60.90109 37900 ft 452 kts 217°
2026-04-14 16:20 -38.76987 -60.94612 37898 ft 452 kts 217°
2026-04-14 16:21 -38.82215 -60.99131 37901 ft 450 kts 217°
2026-04-14 16:21 -38.87393 -61.03616 37887 ft 449 kts 217°
2026-04-14 16:22 -38.92559 -61.08098 37886 ft 449 kts 217°
2026-04-14 16:22 -38.97730 -61.12593 37884 ft 449 kts 217°
2026-04-14 16:23 -39.02884 -61.17081 37873 ft 449 kts 217°
2026-04-14 16:23 -39.08066 -61.21601 37878 ft 448 kts 217°
2026-04-14 16:24 -39.13206 -61.26094 37868 ft 447 kts 217°
2026-04-14 16:24 -39.18368 -61.30613 37869 ft 447 kts 217°
2026-04-14 16:25 -39.23483 -61.35099 37865 ft 447 kts 217°
2026-04-14 16:25 -39.28613 -61.39607 37859 ft 447 kts 217°
2026-04-14 16:26 -39.33762 -61.44139 37860 ft 447 kts 217°
2026-04-14 16:26 -39.38885 -61.48657 37854 ft 447 kts 217°
2026-04-14 16:27 -39.43990 -61.53167 37853 ft 446 kts 217°
2026-04-14 16:27 -39.49119 -61.57706 37849 ft 446 kts 217°
2026-04-14 16:28 -39.54245 -61.62251 37853 ft 446 kts 217°
2026-04-14 16:28 -39.59338 -61.66775 37853 ft 445 kts 218°
2026-04-14 16:29 -39.64450 -61.71324 37852 ft 446 kts 218°
2026-04-14 16:29 -39.69556 -61.75876 37853 ft 445 kts 218°
2026-04-14 16:30 -39.74652 -61.80426 37848 ft 444 kts 218°
2026-04-14 16:30 -39.79723 -61.84964 37843 ft 444 kts 218°
2026-04-14 16:31 -39.84805 -61.89520 37837 ft 444 kts 218°
2026-04-14 16:31 -39.89711 -61.94379 37830 ft 443 kts 223°
2026-04-14 16:32 -39.94474 -61.99484 37825 ft 444 kts 223°
2026-04-14 16:32 -39.99233 -62.04583 37823 ft 443 kts 223°
2026-04-14 16:33 -40.03987 -62.09687 37835 ft 443 kts 223°
2026-04-14 16:33 -40.08747 -62.14808 37828 ft 443 kts 224°
2026-04-14 16:34 -40.13492 -62.19921 37822 ft 443 kts 224°
2026-04-14 16:34 -40.18250 -62.25058 37815 ft 443 kts 224°
2026-04-14 16:35 -40.22975 -62.30169 37823 ft 444 kts 224°
2026-04-14 16:35 -40.27750 -62.35345 37821 ft 444 kts 224°
2026-04-14 16:36 -40.32500 -62.40503 37809 ft 445 kts 224°
2026-04-14 16:36 -40.37232 -62.45649 37825 ft 445 kts 224°
2026-04-14 16:37 -40.41994 -62.50840 37823 ft 444 kts 224°
2026-04-14 16:37 -40.46719 -62.56000 37814 ft 445 kts 224°
2026-04-14 16:38 -40.51496 -62.61225 37818 ft 445 kts 225°
2026-04-14 16:38 -40.56253 -62.66441 37830 ft 446 kts 225°
2026-04-14 16:39 -40.61001 -62.71654 37813 ft 447 kts 225°
2026-04-14 16:39 -40.65761 -62.76891 37818 ft 447 kts 226°
2026-04-14 16:40 -40.70509 -62.82127 37805 ft 447 kts 226°
2026-04-14 16:40 -40.75290 -62.87407 37802 ft 448 kts 226°
2026-04-14 16:41 -40.80042 -62.92667 37808 ft 449 kts 226°
2026-04-14 16:41 -40.84842 -62.97989 37799 ft 448 kts 226°
2026-04-14 16:42 -40.89826 -63.02998 37807 ft 454 kts 220°
2026-04-14 16:42 -40.95034 -63.07733 37804 ft 454 kts 221°
2026-04-14 16:43 -41.00210 -63.12505 37797 ft 455 kts 221°
2026-04-14 16:43 -41.05384 -63.17289 37793 ft 455 kts 221°
2026-04-14 16:44 -41.10543 -63.22068 37789 ft 454 kts 221°
2026-04-14 16:44 -41.15731 -63.26883 37781 ft 455 kts 221°
2026-04-14 16:45 -41.23503 -63.34114 37780 ft 456 kts 222°
2026-04-14 16:45 -41.28728 -63.38990 37786 ft 457 kts 222°
2026-04-14 16:46 -41.33896 -63.43820 37783 ft 458 kts 222°
2026-04-14 16:46 -41.39083 -63.48676 37785 ft 457 kts 222°
2026-04-14 16:47 -41.44276 -63.53550 37778 ft 458 kts 222°
2026-04-14 16:47 -41.49471 -63.58434 37771 ft 458 kts 223°
2026-04-14 16:48 -41.54646 -63.63308 37773 ft 458 kts 223°
2026-04-14 16:48 -41.59810 -63.68184 37785 ft 457 kts 223°
2026-04-14 16:49 -41.65020 -63.73112 37786 ft 458 kts 223°
2026-04-14 16:49 -41.70209 -63.78030 37787 ft 458 kts 223°
2026-04-14 16:50 -41.75388 -63.82949 37792 ft 456 kts 224°
2026-04-14 16:50 -41.80568 -63.87878 37792 ft 458 kts 224°
2026-04-14 16:51 -41.85743 -63.92812 37788 ft 455 kts 224°
2026-04-14 16:51 -41.90883 -63.97724 37788 ft 456 kts 224°
2026-04-14 16:52 -41.96023 -64.02645 37786 ft 455 kts 224°
2026-04-14 16:52 -42.01197 -64.07610 37786 ft 457 kts 224°
2026-04-14 16:53 -42.06360 -64.12573 37780 ft 458 kts 224°
2026-04-14 16:53 -42.11531 -64.17554 37754 ft 458 kts 225°
2026-04-14 16:54 -42.16705 -64.22547 37752 ft 455 kts 225°
2026-04-14 16:54 -42.21865 -64.27540 37746 ft 458 kts 225°
2026-04-14 16:55 -42.27015 -64.32530 37748 ft 457 kts 225°
2026-04-14 16:55 -42.32179 -64.37546 37747 ft 459 kts 225°
2026-04-14 16:56 -42.37347 -64.42575 37744 ft 456 kts 225°
2026-04-14 16:56 -42.42529 -64.47629 37741 ft 459 kts 225°
2026-04-14 16:57 -42.47681 -64.52665 37742 ft 461 kts 225°
2026-04-14 16:57 -42.52869 -64.57745 37737 ft 460 kts 225°
2026-04-14 16:58 -42.58025 -64.62806 37738 ft 460 kts 225°
2026-04-14 16:58 -42.63181 -64.67876 37740 ft 459 kts 226°
2026-04-14 16:59 -42.68358 -64.72978 37742 ft 459 kts 226°
2026-04-14 16:59 -42.73497 -64.78051 37734 ft 456 kts 226°
2026-04-14 17:00 -42.78633 -64.83134 37741 ft 457 kts 226°
2026-04-14 17:00 -42.83734 -64.88193 37751 ft 455 kts 227°
2026-04-14 17:01 -42.88910 -64.93338 37727 ft 459 kts 227°
2026-04-14 17:01 -42.94016 -64.98424 37734 ft 459 kts 227°
2026-04-14 17:02 -42.99154 -65.03551 37743 ft 458 kts 227°
2026-04-14 17:02 -43.04303 -65.08701 37738 ft 458 kts 227°
2026-04-14 17:03 -43.09444 -65.13851 37738 ft 457 kts 227°
2026-04-14 17:03 -43.14560 -65.18992 37715 ft 460 kts 227°
2026-04-14 17:04 -43.19699 -65.24161 37717 ft 458 kts 226°
2026-04-14 17:04 -43.22429 -65.26474 37723 ft 470 kts 220°
2026-04-14 17:04 -43.25252 -65.28660 37716 ft 468 kts 220°
2026-04-14 17:05 -43.30918 -65.33112 37714 ft 472 kts 220°
2026-04-14 17:05 -43.36610 -65.37600 37724 ft 471 kts 220°
2026-04-14 17:06 -43.42256 -65.42065 37741 ft 473 kts 220°
2026-04-14 17:06 -43.47911 -65.46545 37716 ft 470 kts 221°
2026-04-14 17:07 -43.53553 -65.51025 37722 ft 469 kts 221°
2026-04-14 17:07 -43.59238 -65.55551 37732 ft 473 kts 221°
2026-04-14 17:08 -43.64914 -65.60075 37714 ft 467 kts 221°
2026-04-14 17:08 -43.70547 -65.64580 37736 ft 468 kts 221°
2026-04-14 17:09 -43.76118 -65.69038 37727 ft 453 kts 222°
2026-04-14 17:09 -43.81518 -65.73378 37741 ft 450 kts 222°
2026-04-14 17:10 -43.84255 -65.75580 37584 ft 455 kts 223°
2026-04-14 17:10 -43.86996 -65.77788 37075 ft 460 kts 223°
2026-04-14 17:10 -43.89737 -65.79993 36548 ft 457 kts 223°
2026-04-14 17:10 -43.92482 -65.82208 36058 ft 458 kts 224°
2026-04-14 17:11 -43.95244 -65.84439 35592 ft 459 kts 224°
2026-04-14 17:11 -43.98019 -65.86685 35081 ft 464 kts 224°
2026-04-14 17:11 -44.00840 -65.88903 34583 ft 474 kts 220°
2026-04-14 17:11 -44.03778 -65.90997 34071 ft 479 kts 221°
2026-04-14 17:12 -44.06729 -65.93124 33516 ft 478 kts 221°
2026-04-14 17:12 -44.09637 -65.95228 32993 ft 474 kts 221°
2026-04-14 17:12 -44.12571 -65.97357 32443 ft 477 kts 220°
2026-04-14 17:12 -44.15517 -65.99494 31909 ft 476 kts 220°
2026-04-14 17:13 -44.18457 -66.01631 31391 ft 474 kts 220°
2026-04-14 17:13 -44.21376 -66.03758 30872 ft 478 kts 220°
2026-04-14 17:13 -44.24317 -66.05896 30349 ft 471 kts 220°
2026-04-14 17:13 -44.27185 -66.07989 29822 ft 466 kts 220°
2026-04-14 17:14 -44.30018 -66.10055 29325 ft 458 kts 220°
2026-04-14 17:14 -44.32808 -66.12096 28820 ft 451 kts 220°
2026-04-14 17:14 -44.35596 -66.14137 28320 ft 451 kts 220°
2026-04-14 17:14 -44.38371 -66.16172 27815 ft 449 kts 219°
2026-04-14 17:15 -44.41121 -66.18187 27325 ft 443 kts 220°
2026-04-14 17:15 -44.43800 -66.20152 26840 ft 438 kts 220°
2026-04-14 17:15 -44.46469 -66.22115 26360 ft 433 kts 219°
2026-04-14 17:15 -44.49119 -66.24065 25885 ft 430 kts 219°
2026-04-14 17:16 -44.51740 -66.25994 25420 ft 424 kts 219°
2026-04-14 17:16 -44.54349 -66.27918 24941 ft 420 kts 219°
2026-04-14 17:16 -44.56909 -66.29806 24479 ft 413 kts 219°
2026-04-14 17:16 -44.59405 -66.31650 24028 ft 409 kts 219°
2026-04-14 17:17 -44.61932 -66.33518 23573 ft 404 kts 219°
2026-04-14 17:17 -44.64404 -66.35349 23126 ft 404 kts 219°
2026-04-14 17:17 -44.66858 -66.37166 22690 ft 398 kts 219°
2026-04-14 17:17 -44.69296 -66.38975 22250 ft 397 kts 219°
2026-04-14 17:18 -44.71745 -66.40792 21802 ft 392 kts 218°
2026-04-14 17:18 -44.74155 -66.42582 21368 ft 390 kts 218°
2026-04-14 17:18 -44.76540 -66.44356 20937 ft 387 kts 218°
2026-04-14 17:18 -44.78914 -66.46123 20501 ft 384 kts 218°
2026-04-14 17:19 -44.81259 -66.47870 20071 ft 380 kts 218°
2026-04-14 17:19 -44.83571 -66.49595 19659 ft 378 kts 218°
2026-04-14 17:19 -44.85902 -66.51334 19238 ft 374 kts 218°
2026-04-14 17:19 -44.88156 -66.53017 18828 ft 368 kts 218°
2026-04-14 17:20 -44.90410 -66.54704 18416 ft 368 kts 217°
2026-04-14 17:20 -44.92666 -66.56393 18017 ft 365 kts 217°
2026-04-14 17:20 -44.94904 -66.58070 17611 ft 364 kts 217°
2026-04-14 17:20 -44.97147 -66.59751 17205 ft 360 kts 217°
2026-04-14 17:21 -44.99324 -66.61383 16810 ft 356 kts 217°
2026-04-14 17:21 -45.01520 -66.63032 16427 ft 354 kts 217°
2026-04-14 17:21 -45.03672 -66.64651 16036 ft 351 kts 217°
2026-04-14 17:21 -45.05801 -66.66253 15657 ft 347 kts 217°
2026-04-14 17:22 -45.07912 -66.67842 15287 ft 345 kts 217°
2026-04-14 17:22 -45.10035 -66.69442 14882 ft 340 kts 217°
2026-04-14 17:22 -45.12113 -66.71011 14491 ft 339 kts 217°
2026-04-14 17:22 -45.14176 -66.72568 14132 ft 337 kts 217°
2026-04-14 17:23 -45.16217 -66.74110 13772 ft 335 kts 217°
2026-04-14 17:23 -45.18279 -66.75669 13382 ft 332 kts 216°
2026-04-14 17:23 -45.20278 -66.77181 13014 ft 327 kts 217°
2026-04-14 17:23 -45.22293 -66.78708 12664 ft 326 kts 216°
2026-04-14 17:24 -45.24290 -66.80222 12313 ft 325 kts 216°
2026-04-14 17:24 -45.26289 -66.81738 11932 ft 322 kts 216°
2026-04-14 17:24 -45.28243 -66.83220 11595 ft 318 kts 216°
2026-04-14 17:24 -45.30179 -66.84692 11234 ft 312 kts 216°
2026-04-14 17:25 -45.32071 -66.86129 10890 ft 304 kts 216°
2026-04-14 17:25 -45.33915 -66.87532 10564 ft 297 kts 216°
2026-04-14 17:25 -45.35687 -66.88881 10242 ft 289 kts 216°
2026-04-14 17:25 -45.37442 -66.90218 9903 ft 279 kts 216°
2026-04-14 17:26 -45.39133 -66.91507 9619 ft 271 kts 217°
2026-04-14 17:26 -45.40781 -66.92767 9314 ft 265 kts 216°
2026-04-14 17:26 -45.42405 -66.94008 9028 ft 266 kts 216°
2026-04-14 17:26 -45.44027 -66.95249 8734 ft 268 kts 216°
2026-04-14 17:27 -45.45650 -66.96490 8436 ft 264 kts 216°
2026-04-14 17:27 -45.47270 -66.97729 8162 ft 264 kts 216°
2026-04-14 17:27 -45.48888 -66.98968 7853 ft 262 kts 216°
2026-04-14 17:27 -45.50462 -67.00173 7569 ft 256 kts 216°
2026-04-14 17:28 -45.52006 -67.01356 7292 ft 248 kts 216°
2026-04-14 17:28 -45.53505 -67.02504 7018 ft 240 kts 216°
2026-04-14 17:28 -45.54950 -67.03612 6765 ft 233 kts 216°
2026-04-14 17:28 -45.56355 -67.04692 6493 ft 226 kts 216°
2026-04-14 17:29 -45.57721 -67.05742 6232 ft 219 kts 216°
2026-04-14 17:29 -45.59049 -67.06762 5989 ft 213 kts 216°
2026-04-14 17:29 -45.60326 -67.07745 5761 ft 208 kts 217°
2026-04-14 17:29 -45.61588 -67.08717 5527 ft 204 kts 217°
2026-04-14 17:30 -45.62859 -67.09698 5317 ft 207 kts 217°
2026-04-14 17:30 -45.64118 -67.10668 5101 ft 206 kts 217°
2026-04-14 17:30 -45.65385 -67.11646 4866 ft 207 kts 216°
2026-04-14 17:30 -45.66651 -67.12620 4684 ft 201 kts 217°
2026-04-14 17:31 -45.67855 -67.13547 4476 ft 195 kts 217°
2026-04-14 17:31 -45.69024 -67.14449 4328 ft 183 kts 217°
2026-04-14 17:31 -45.70108 -67.15283 4134 ft 175 kts 218°
2026-04-14 17:31 -45.71166 -67.16100 3980 ft 168 kts 218°
2026-04-14 17:32 -45.72171 -67.16879 3941 ft 167 kts 218°
2026-04-14 17:32 -45.73201 -67.17679 3831 ft 167 kts 218°
2026-04-14 17:32 -45.74232 -67.18493 3664 ft 166 kts 223°
2026-04-14 17:32 -45.74807 -67.19784 3498 ft 154 kts 256°
2026-04-14 17:33 -45.75063 -67.21274 3311 ft 155 kts 258°
2026-04-14 17:33 -45.75299 -67.22758 3114 ft 154 kts 259°
2026-04-14 17:33 -45.75522 -67.24253 2915 ft 152 kts 260°
2026-04-14 17:34 -45.75943 -67.27213 2526 ft 152 kts 260°
2026-04-14 17:34 -45.76149 -67.28715 2327 ft 152 kts 261°
2026-04-14 17:34 -45.76348 -67.30183 2130 ft 154 kts 260°
2026-04-14 17:34 -45.76551 -67.31685 1955 ft 147 kts 260°
2026-04-14 17:35 -45.76735 -67.33049 1713 ft 132 kts 260°
2026-04-14 17:35 -45.76896 -67.34248 1580 ft 111 kts 260°
2026-04-14 17:35 -45.77037 -67.35276 1366 ft 98 kts 259°
2026-04-14 17:35 -45.77170 -67.36189 1194 ft 97 kts 261°
2026-04-14 17:36 -45.77289 -67.37161 1038 ft 106 kts 259°
2026-04-14 17:36 -45.77409 -67.38125 977 ft 102 kts 262°
2026-04-14 17:36 -45.77536 -67.39095 834 ft 101 kts 261°
2026-04-14 17:36 -45.77666 -67.40041 758 ft 94 kts 260°
2026-04-14 17:37 -45.77815 -67.41019 676 ft 102 kts 263°
2026-04-14 17:37 -45.77944 -67.42042 557 ft 102 kts 263°
2026-04-14 17:37 -45.78072 -67.43009 377 ft 101 kts 263°
2026-04-14 17:37 -45.78201 -67.44050 265 ft 111 kts 263°
2026-04-14 17:38 -45.78345 -67.45110 127 ft 110 kts 261°
2026-04-14 17:38 -45.78472 -67.46069 145 ft 87 kts 261°
2026-04-14 17:38 -45.78576 -67.46870 168 ft 74 kts 258°
2026-04-14 17:38 -45.78655 -67.47471 185 ft 34 kts 258°
2026-04-14 17:39 -45.78675 -67.47572 188 ft 23 kts 259°
2026-04-14 17:39 -45.78699 -67.47773 192 ft 18 kts 262°
2026-04-14 17:39 -45.78719 -67.47938 196 ft 14 kts 259°
2026-04-14 17:39 -45.78737 -67.48068 198 ft 12 kts 257°
2026-04-14 17:40 -45.78760 -67.48189 201 ft 12 kts 244°
2026-04-14 17:40 -45.78819 -67.48239 203 ft 7 kts 180°
2026-04-14 17:40 -45.78861 -67.48233 204 ft 5 kts 168°
2026-04-14 17:40 -45.78904 -67.48217 205 ft 7 kts 159°
2026-04-14 17:41 -45.78948 -67.48148 204 ft 11 kts 85°
2026-04-14 17:41 -45.78935 -67.48025 201 ft 12 kts 79°
2026-04-14 17:41 -45.78917 -67.47887 198 ft 15 kts 79°
2026-04-14 17:41 -45.78893 -67.47716 195 ft 19 kts 78°
2026-04-14 17:42 -45.78864 -67.47511 190 ft 22 kts 78°
2026-04-14 17:42 -45.78833 -67.47270 182 ft 26 kts 79°
2026-04-14 17:42 -45.78794 -67.46993 175 ft 29 kts 78°
2026-04-14 17:42 -45.78783 -67.46820 172 ft 13 kts 122°
2026-04-14 17:43 -45.78811 -67.46805 172 ft 5 kts 206°
2026-04-14 17:43 -45.78886 -67.46803 173 ft 9 kts 176°
2026-04-14 17:43 -45.78928 -67.46828 175 ft 2 kts 232°
2026-04-14 17:43 -45.78933 -67.46840 175 ft 0 kts 231°
2026-04-14 17:44 -45.78934 -67.46841 175 ft 1 kts 231°
2026-04-14 17:44 -45.78939 -67.46851 175 ft 0 kts 232°
2026-04-14 17:46 -45.78944 -67.46810 175 ft 0 kts 232°
2026-04-14 17:47 -45.78944 -67.46809 174 ft 0 kts 232°
2026-04-14 17:47 -45.78943 -67.46809 174 ft 0 kts 232°
2026-04-14 17:47 -45.78946 -67.46815 175 ft 0 kts 232°
2026-04-14 17:47 -45.78947 -67.46815 175 ft 0 kts 274°
2026-04-14 17:48 -45.78949 -67.46814 175 ft 0 kts 225°
2026-04-14 17:49 -45.78950 -67.46814 175 ft 0 kts 225°
2026-04-14 17:49 -45.78948 -67.46817 175 ft 0 kts 225°
2026-04-14 17:49 -45.78947 -67.46818 175 ft 0 kts 225°
2026-04-14 17:49 -45.78948 -67.46818 175 ft 0 kts 225°